Location: Maynard F. Jordan Observatory
(44.9000°N, 68.6700°W)
Time: 01:42:31
(UTC-05:00)

Cosmos 2297 Rocket - Visible Passes

Search period start: 10 February 2016 00:00
Search period end: 20 February 2016 00:00
Orbit: 839 x 844 km, 71.0° (Epoch: 08 February)

Date Brightness Start Highest point End Pass type
(mag) Time Alt. Az. Time Alt. Az. Time Alt. Az.
10 Feb 4.2 03:18:20 21° NNE 03:18:20 21° NNE 03:20:08 10° NNE visible
10 Feb 4.0 05:00:08 15° NW 05:00:08 15° NW 05:02:48 10° N visible
11 Feb 4.4 03:03:45 18° NNE 03:03:45 18° NNE 03:05:04 10° NNE visible
11 Feb 4.0 04:45:33 15° NNW 04:45:33 15° NNW 04:47:49 10° N visible
12 Feb 4.7 02:49:06 15° NNE 02:49:06 15° NNE 02:49:59 10° NNE visible
12 Feb 4.1 04:30:55 15° NNW 04:30:55 15° NNW 04:32:49 10° N visible
13 Feb 4.9 02:34:27 12° NNE 02:34:27 12° NNE 02:34:55 10° NNE visible
13 Feb 4.2 04:16:16 14° NNW 04:16:16 14° NNW 04:17:49 10° N visible
14 Feb 5.0 02:19:46 10° NNE 02:19:46 10° NNE 02:19:50 10° NNE visible
14 Feb 4.3 04:01:34 14° NNW 04:01:34 14° NNW 04:02:49 10° N visible
15 Feb 4.4 03:46:51 13° N 03:46:51 13° N 03:47:48 10° N visible
16 Feb 4.5 03:32:06 12° N 03:32:06 12° N 03:32:47 10° N visible
17 Feb 4.7 03:17:20 11° N 03:17:20 11° N 03:17:46 10° N visible
18 Feb 4.8 03:02:33 11° N 03:02:33 11° N 03:02:45 10° N visible
